User: anonymous   Login
Location: Kuppenheim
(48.8299°N, 8.2568°E)
Time: 05:36:08
(UTC+00:00)
Language:

Cosmos 1570 Rocket - Orbit

View from above orbital plane
View from above orbital plane
View from above satellite
View from above satellite

Ground track
Ground track

The orbit data is extracted from the following two-line orbital elements,

1 15032U 84056B   21261.32593895 -.00000006  00000-0  72298-5 0  9990
2 15032  74.0689 114.8097 0018255 245.9506 113.9736 14.34843952949543
Epoch (UTC): 18 September 2021 07:49:21
Eccentricity: 0.0018255
inclination: 74.0689°
perigee height: 762 km
apogee height: 788 km
right ascension of ascending node: 114.8097°
argument of perigee: 245.9506°
revolutions per day: 14.34843952
mean anomaly at epoch: 113.9736°
orbit number at epoch: 94954

The dashed part of the orbit path shows where the satellite is in the earth's shadow,  

DLR